Starlink 2329

operational
NORAD ID: 47873 Int'l Des: 2021-021 Owner: SPXS Country: US Constellation: starlink
LEOCIRCULARSTARLINK_TYPE

About Starlink 2329

Description loading...

Live Position

Loading 3D Globe...

Upcoming Passes

Altitude History

Altitude vs Time

uPlot chart will show altitude changes over time

Two-Line Element Set

1 47873U 21021P 25257.53409633 .00003579 00000-0 25896-3 0 9996
2 47873 53.0552 332.4102 0001262 90.2471 269.8663 15.06413808249775
Epoch: Sep 14, 2025 • Age: 21 hours

Current Status

Altitude 551.6 km
Velocity 7.59 km/s
Sub-Earth Point -15.47°S, 179.48°W
Launch Date Mar 14, 2021
Age 4.5 years
Type internet

Technical Details

Classification Payload
Mass 260.00 kg
Dry Mass 248.00 kg
Total Mass 260.00 kg
Length 0.20 m
Diameter 2.80 m
Span 9.00 m
Shape Box + pan
Manufacturer SPXS
Bus Type Starlink
Phase Status In Orbit
Owner/State SPXS/US

Large Constellations

Loading constellations...